Time,TemperatureF,DewpointF,PressureIn,WindDirection,WindDirectionDegrees,WindSpeedMPH,WindSpeedGustMPH,Humidity,HourlyPrecipIn,Conditions,Clouds,dailyrainin,SoftwareType,DateUTC
2013-03-15 00:01:00,61.7,57.2,30.24,South,178,6.0,10.5,85,0.00,,,-99.99,FreeWX 2.03,2013-03-15 05:01:00,
2013-03-15 00:06:00,61.7,57.2,30.24,South,178,6.0,10.1,85,0.00,,,-99.99,FreeWX 2.03,2013-03-15 05:06:00,
2013-03-15 00:11:00,61.7,57.2,30.24,South,179,6.0,9.6,85,0.00,,,-99.99,FreeWX 2.03,2013-03-15 05:11:00,
2013-03-15 00:16:00,61.7,57.2,30.24,South,177,6.0,10.5,85,0.00,,,-99.99,FreeWX 2.03,2013-03-15 05:16:00,
2013-03-15 00:21:00,61.7,57.2,30.24,South,177,6.0,9.6,85,0.00,,,-99.99,FreeWX 2.03,2013-03-15 05:21:00,
2013-03-15 00:27:00,61.7,57.2,30.24,South,177,6.0,9.2,85,0.00,,,-99.99,FreeWX 2.03,2013-03-15 05:27:00,
2013-03-15 00:32:00,61.7,57.2,30.24,South,177,5.0,9.6,85,0.00,,,-99.99,FreeWX 2.03,2013-03-15 05:32:00,
2013-03-15 00:37:00,61.7,57.4,30.24,South,179,5.0,10.5,86,0.00,,,-99.99,FreeWX 2.03,2013-03-15 05:37:00,
2013-03-15 00:42:00,61.7,57.4,30.24,South,179,6.0,10.1,86,0.00,,,-99.99,FreeWX 2.03,2013-03-15 05:42:00,
2013-03-15 00:47:00,61.5,57.2,30.24,South,179,6.0,10.1,86,0.00,,,-99.99,FreeWX 2.03,2013-03-15 05:47:00,
2013-03-15 00:52:00,61.5,57.2,30.24,South,178,6.0,10.1,86,0.00,,,-99.99,FreeWX 2.03,2013-03-15 05:52:00,
2013-03-15 00:57:00,61.5,57.2,30.24,South,178,6.0,9.6,86,0.00,,,-99.99,FreeWX 2.03,2013-03-15 05:57:00,
2013-03-15 01:02:00,61.5,57.2,30.24,South,180,6.0,10.5,86,0.00,,,-99.99,FreeWX 2.03,2013-03-15 06:02:00,
2013-03-15 01:07:00,61.5,57.6,30.24,South,180,6.0,9.2,87,0.00,,,-99.99,FreeWX 2.03,2013-03-15 06:07:00,
2013-03-15 01:12:00,61.5,57.6,30.24,South,178,6.0,10.1,87,0.00,,,-99.99,FreeWX 2.03,2013-03-15 06:12:00,
2013-03-15 01:17:00,61.5,57.6,30.24,South,178,6.0,10.1,87,0.00,,,-99.99,FreeWX 2.03,2013-03-15 06:17:00,
2013-03-15 01:22:00,61.5,57.9,30.24,South,179,6.0,9.2,88,0.00,,,-99.99,FreeWX 2.03,2013-03-15 06:22:00,
2013-03-15 01:27:00,61.5,57.9,30.24,South,180,6.0,11.2,88,0.00,,,-99.99,FreeWX 2.03,2013-03-15 06:27:00,
2013-03-15 01:32:00,61.3,57.7,30.24,South,181,5.0,9.6,88,0.00,,,-99.99,FreeWX 2.03,2013-03-15 06:32:00,
2013-03-15 01:37:00,61.3,58.1,30.24,South,180,5.0,9.6,89,0.00,,,-99.99,FreeWX 2.03,2013-03-15 06:37:00,
2013-03-15 01:42:00,61.3,58.1,30.24,South,180,6.0,10.1,89,0.00,,,-99.99,FreeWX 2.03,2013-03-15 06:42:00,
2013-03-15 01:47:00,61.3,58.1,30.24,South,178,6.0,10.1,89,0.00,,,-99.99,FreeWX 2.03,2013-03-15 06:47:00,
2013-03-15 01:52:00,61.3,58.5,30.24,South,179,6.0,10.5,90,0.00,,,-99.99,FreeWX 2.03,2013-03-15 06:52:00,
2013-03-15 01:57:00,61.3,58.5,30.24,South,181,6.0,11.6,90,0.00,,,-99.99,FreeWX 2.03,2013-03-15 06:57:00,
2013-03-15 02:02:00,61.3,58.5,30.24,South,179,6.0,11.2,90,0.00,,,-99.99,FreeWX 2.03,2013-03-15 07:02:00,
2013-03-15 02:07:00,61.5,58.6,30.24,South,179,6.0,10.5,90,0.00,,,-99.99,FreeWX 2.03,2013-03-15 07:07:00,
2013-03-15 02:12:00,61.5,58.8,30.24,South,180,6.0,9.2,91,0.00,,,-99.99,FreeWX 2.03,2013-03-15 07:12:00,
2013-03-15 02:17:00,61.3,58.6,30.24,South,180,6.0,9.2,91,0.00,,,-99.99,FreeWX 2.03,2013-03-15 07:17:00,
2013-03-15 02:22:00,61.3,58.6,30.24,South,180,6.0,10.1,91,0.00,,,-99.99,FreeWX 2.03,2013-03-15 07:22:00,
2013-03-15 02:27:00,61.3,58.6,30.21,South,180,6.0,10.1,91,0.00,,,-99.99,FreeWX 2.03,2013-03-15 07:27:00,
2013-03-15 02:32:00,61.3,58.6,30.21,South,180,6.0,8.7,91,0.00,,,-99.99,FreeWX 2.03,2013-03-15 07:32:00,
2013-03-15 02:37:00,61.2,58.5,30.21,South,179,5.0,10.1,91,0.00,,,-99.99,FreeWX 2.03,2013-03-15 07:37:00,
2013-03-15 02:42:00,61.2,58.8,30.21,South,180,6.0,11.2,92,0.00,,,-99.99,FreeWX 2.03,2013-03-15 07:42:00,
2013-03-15 02:47:00,61.2,58.8,30.21,South,180,7.0,10.1,92,0.00,,,-99.99,FreeWX 2.03,2013-03-15 07:47:00,
2013-03-15 02:52:00,61.2,58.8,30.21,South,180,6.0,11.2,92,0.00,,,-99.99,FreeWX 2.03,2013-03-15 07:52:00,
2013-03-15 02:57:00,61.2,58.8,30.21,South,179,6.0,11.2,92,0.00,,,-99.99,FreeWX 2.03,2013-03-15 07:57:00,
2013-03-15 03:02:00,61.2,58.8,30.21,South,177,6.0,10.5,92,0.00,,,-99.99,FreeWX 2.03,2013-03-15 08:02:00,
2013-03-15 03:07:00,61.2,58.8,30.21,South,178,6.0,11.0,92,0.00,,,-99.99,FreeWX 2.03,2013-03-15 08:07:00,
2013-03-15 03:12:00,61.2,58.8,30.18,South,180,7.0,10.1,92,0.00,,,-99.99,FreeWX 2.03,2013-03-15 08:12:00,
2013-03-15 03:17:00,61.2,59.2,30.18,South,179,6.0,9.2,93,0.00,,,-99.99,FreeWX 2.03,2013-03-15 08:17:00,
2013-03-15 03:22:00,61.2,59.2,30.18,South,179,6.0,11.0,93,0.00,,,-99.99,FreeWX 2.03,2013-03-15 08:22:00,
2013-03-15 03:27:00,61.0,59.0,30.18,South,181,6.0,11.0,93,0.00,,,-99.99,FreeWX 2.03,2013-03-15 08:27:00,
2013-03-15 03:32:00,61.0,59.0,30.18,South,182,6.0,11.6,93,0.00,,,-99.99,FreeWX 2.03,2013-03-15 08:32:00,
2013-03-15 03:37:00,61.0,59.0,30.18,South,179,6.0,11.2,93,0.00,,,-99.99,FreeWX 2.03,2013-03-15 08:37:00,
2013-03-15 03:42:00,61.0,59.0,30.18,South,180,6.0,10.1,93,0.00,,,-99.99,FreeWX 2.03,2013-03-15 08:42:00,
2013-03-15 03:47:00,61.0,59.0,30.18,South,179,6.0,8.7,93,0.00,,,-99.99,FreeWX 2.03,2013-03-15 08:47:00,
2013-03-15 03:52:00,61.0,59.0,30.18,South,177,6.0,11.2,93,0.00,,,-99.99,FreeWX 2.03,2013-03-15 08:52:00,
2013-03-15 03:57:00,61.0,59.0,30.18,South,178,6.0,12.1,93,0.00,,,-99.99,FreeWX 2.03,2013-03-15 08:57:00,
2013-03-15 04:02:00,61.0,59.0,30.18,South,179,6.0,10.5,93,0.00,,,-99.99,FreeWX 2.03,2013-03-15 09:02:00,
2013-03-15 04:07:00,61.0,59.0,30.18,South,180,6.0,9.6,93,0.00,,,-99.99,FreeWX 2.03,2013-03-15 09:07:00,
2013-03-15 04:12:00,61.0,59.2,30.18,South,180,6.0,9.2,94,0.00,,,-99.99,FreeWX 2.03,2013-03-15 09:12:00,
2013-03-15 04:18:00,61.0,59.2,30.18,South,179,6.0,8.7,94,0.00,,,-99.99,FreeWX 2.03,2013-03-15 09:18:00,
2013-03-15 04:23:00,61.0,59.2,30.18,South,178,6.0,9.2,94,0.00,,,-99.99,FreeWX 2.03,2013-03-15 09:23:00,
2013-03-15 04:28:00,61.0,59.2,30.18,South,179,6.0,10.1,94,0.00,,,-99.99,FreeWX 2.03,2013-03-15 09:28:00,
2013-03-15 04:33:00,61.0,59.2,30.18,South,181,6.0,8.3,94,0.00,,,-99.99,FreeWX 2.03,2013-03-15 09:33:00,
2013-03-15 04:38:00,60.8,59.0,30.18,South,181,5.0,9.6,94,0.00,,,-99.99,FreeWX 2.03,2013-03-15 09:38:00,
2013-03-15 04:43:00,60.8,59.0,30.18,South,180,6.0,10.5,94,0.00,,,-99.99,FreeWX 2.03,2013-03-15 09:43:00,
2013-03-15 04:48:00,60.8,59.0,30.18,South,180,5.0,8.7,94,0.00,,,-99.99,FreeWX 2.03,2013-03-15 09:48:00,
2013-03-15 04:53:00,60.8,59.0,30.18,South,180,5.0,8.7,94,0.00,,,-99.99,FreeWX 2.03,2013-03-15 09:53:00,
2013-03-15 04:58:00,60.8,59.0,30.18,South,179,5.0,10.1,94,0.00,,,-99.99,FreeWX 2.03,2013-03-15 09:58:00,
2013-03-15 05:03:00,60.8,59.0,30.18,South,179,6.0,11.0,94,0.00,,,-99.99,FreeWX 2.03,2013-03-15 10:03:00,
2013-03-15 05:08:00,60.8,59.0,30.18,South,180,6.0,9.6,94,0.00,,,-99.99,FreeWX 2.03,2013-03-15 10:08:00,
2013-03-15 05:13:00,60.8,59.0,30.18,South,182,5.0,8.7,94,0.00,,,-99.99,FreeWX 2.03,2013-03-15 10:13:00,
2013-03-15 05:18:00,60.8,59.0,30.18,South,182,5.0,9.6,94,0.00,,,-99.99,FreeWX 2.03,2013-03-15 10:18:00,
2013-03-15 05:23:00,60.8,59.0,30.18,South,181,6.0,9.6,94,0.00,,,-99.99,FreeWX 2.03,2013-03-15 10:23:00,
2013-03-15 05:28:00,60.8,59.0,30.18,South,181,6.0,10.5,94,0.00,,,-99.99,FreeWX 2.03,2013-03-15 10:28:00,
2013-03-15 05:33:00,60.8,59.0,30.18,South,181,6.0,9.6,94,0.00,,,-99.99,FreeWX 2.03,2013-03-15 10:33:00,
2013-03-15 05:38:00,60.8,59.0,30.18,South,182,6.0,10.1,94,0.00,,,-99.99,FreeWX 2.03,2013-03-15 10:38:00,
2013-03-15 05:43:00,60.8,59.4,30.18,South,181,6.0,11.0,95,0.00,,,-99.99,FreeWX 2.03,2013-03-15 10:43:00,
2013-03-15 05:48:00,60.8,59.4,30.18,South,180,6.0,10.1,95,0.00,,,-99.99,FreeWX 2.03,2013-03-15 10:48:00,
2013-03-15 05:53:00,60.8,59.4,30.18,South,181,6.0,9.2,95,0.00,,,-99.99,FreeWX 2.03,2013-03-15 10:53:00,
2013-03-15 05:58:00,60.8,59.4,30.18,South,182,6.0,11.0,95,0.00,,,-99.99,FreeWX 2.03,2013-03-15 10:58:00,
2013-03-15 06:03:00,60.8,59.4,30.18,South,181,6.0,10.1,95,0.00,,,-99.99,FreeWX 2.03,2013-03-15 11:03:00,
2013-03-15 06:08:00,60.8,59.4,30.18,South,181,6.0,8.7,95,0.00,,,-99.99,FreeWX 2.03,2013-03-15 11:08:00,
2013-03-15 06:13:00,60.8,59.4,30.18,South,181,5.0,10.1,95,0.00,,,-99.99,FreeWX 2.03,2013-03-15 11:13:00,
2013-03-15 06:18:00,60.8,59.4,30.18,South,179,5.0,8.3,95,0.00,,,-99.99,FreeWX 2.03,2013-03-15 11:18:00,
2013-03-15 06:23:00,60.6,59.2,30.18,South,180,5.0,9.2,95,0.00,,,-99.99,FreeWX 2.03,2013-03-15 11:23:00,
2013-03-15 06:28:00,60.6,59.2,30.18,South,181,5.0,8.3,95,0.00,,,-99.99,FreeWX 2.03,2013-03-15 11:28:00,
2013-03-15 06:33:00,60.6,59.2,30.18,South,180,5.0,9.6,95,0.00,,,-99.99,FreeWX 2.03,2013-03-15 11:33:00,
2013-03-15 06:38:00,60.6,59.2,30.18,South,184,5.0,8.7,95,0.00,,,-99.99,FreeWX 2.03,2013-03-15 11:38:00,
2013-03-15 06:43:00,60.4,59.0,30.18,South,188,6.0,8.7,95,0.00,,,-99.99,FreeWX 2.03,2013-03-15 11:43:00,
2013-03-15 06:48:00,60.4,59.0,30.18,South,186,6.0,8.7,95,0.00,,,-99.99,FreeWX 2.03,2013-03-15 11:48:00,
2013-03-15 06:53:00,60.4,59.0,30.18,South,186,6.0,9.6,95,0.00,,,-99.99,FreeWX 2.03,2013-03-15 11:53:00,
2013-03-15 06:58:00,60.4,59.4,30.18,South,189,6.0,11.2,96,0.00,,,-99.99,FreeWX 2.03,2013-03-15 11:58:00,
2013-03-15 07:03:00,60.4,59.4,30.18,South,190,6.0,10.1,96,0.00,,,-99.99,FreeWX 2.03,2013-03-15 12:03:00,
2013-03-15 07:08:00,60.4,59.4,30.18,South,190,6.0,10.1,96,0.00,,,-99.99,FreeWX 2.03,2013-03-15 12:08:00,
2013-03-15 07:13:00,60.4,59.4,30.18,South,189,6.0,9.6,96,0.00,,,-99.99,FreeWX 2.03,2013-03-15 12:13:00,
2013-03-15 07:18:00,60.4,59.4,30.18,South,191,6.0,10.1,96,0.00,,,-99.99,FreeWX 2.03,2013-03-15 12:18:00,
2013-03-15 07:23:00,60.4,59.4,30.18,South,190,6.0,12.1,96,0.00,,,-99.99,FreeWX 2.03,2013-03-15 12:23:00,
2013-03-15 07:28:00,60.4,59.4,30.18,South,187,6.0,9.2,96,0.00,,,-99.99,FreeWX 2.03,2013-03-15 12:28:00,
2013-03-15 07:33:00,60.4,59.4,30.18,South,186,6.0,9.2,96,0.00,,,-99.99,FreeWX 2.03,2013-03-15 12:33:00,
2013-03-15 07:38:00,60.4,59.5,30.18,South,186,6.0,10.5,97,0.00,,,-99.99,FreeWX 2.03,2013-03-15 12:38:00,
2013-03-15 07:43:00,60.4,59.5,30.18,South,188,6.0,9.6,97,0.00,,,-99.99,FreeWX 2.03,2013-03-15 12:43:00,
2013-03-15 07:48:00,60.4,59.5,30.18,South,186,6.0,8.7,97,0.00,,,-99.99,FreeWX 2.03,2013-03-15 12:48:00,
2013-03-15 07:53:00,60.4,59.5,30.18,South,186,5.0,9.2,97,0.00,,,-99.99,FreeWX 2.03,2013-03-15 12:53:00,
2013-03-15 07:58:00,60.4,59.5,30.18,South,186,5.0,9.6,97,0.00,,,-99.99,FreeWX 2.03,2013-03-15 12:58:00,
2013-03-15 08:03:00,60.6,59.7,30.18,South,184,5.0,9.2,97,0.00,,,-99.99,FreeWX 2.03,2013-03-15 13:03:00,
2013-03-15 08:08:00,60.6,59.7,30.18,South,185,6.0,8.7,97,0.00,,,-99.99,FreeWX 2.03,2013-03-15 13:08:00,
2013-03-15 08:13:00,60.8,59.9,30.18,South,189,6.0,8.7,97,0.00,,,-99.99,FreeWX 2.03,2013-03-15 13:13:00,
2013-03-15 08:18:00,60.8,59.9,30.18,SSW,192,6.0,10.1,97,0.00,,,-99.99,FreeWX 2.03,2013-03-15 13:18:00,
2013-03-15 08:23:00,61.0,60.1,30.18,SSW,192,6.0,7.8,97,0.00,,,-99.99,FreeWX 2.03,2013-03-15 13:23:00,
2013-03-15 08:28:00,61.2,60.3,30.18,SSW,192,6.0,9.6,97,0.00,,,-99.99,FreeWX 2.03,2013-03-15 13:28:00,
2013-03-15 08:33:00,61.3,60.4,30.18,SSW,195,6.0,11.0,97,0.00,,,-99.99,FreeWX 2.03,2013-03-15 13:33:00,
2013-03-15 08:38:00,61.5,61.0,30.18,SSW,197,7.0,11.0,98,0.00,,,-99.99,FreeWX 2.03,2013-03-15 13:38:00,
2013-03-15 08:43:00,61.7,61.2,30.18,SSW,197,7.0,9.6,98,0.00,,,-99.99,FreeWX 2.03,2013-03-15 13:43:00,
2013-03-15 08:48:00,61.9,61.3,30.18,SSW,197,6.0,9.6,98,0.00,,,-99.99,FreeWX 2.03,2013-03-15 13:48:00,
2013-03-15 08:53:00,62.1,61.5,30.18,SSW,195,6.0,11.6,98,0.00,,,-99.99,FreeWX 2.03,2013-03-15 13:53:00,
2013-03-15 08:58:00,62.2,61.7,30.21,SSW,197,7.0,12.5,98,0.00,,,-99.99,FreeWX 2.03,2013-03-15 13:58:00,
2013-03-15 09:03:00,62.4,61.5,30.21,SSW,197,7.0,12.5,97,0.00,,,-99.99,FreeWX 2.03,2013-03-15 14:03:00,
2013-03-15 09:08:00,62.6,61.7,30.21,SSW,196,8.0,13.0,97,0.00,,,-99.99,FreeWX 2.03,2013-03-15 14:08:00,
2013-03-15 09:13:00,62.8,61.9,30.21,SSW,194,8.0,12.1,97,0.00,,,-99.99,FreeWX 2.03,2013-03-15 14:13:00,
2013-03-15 09:18:00,63.0,61.9,30.21,South,191,8.0,13.4,96,0.00,,,-99.99,FreeWX 2.03,2013-03-15 14:18:00,
2013-03-15 09:23:00,63.1,62.1,30.21,SSW,192,9.0,13.9,96,0.00,,,-99.99,FreeWX 2.03,2013-03-15 14:23:00,
2013-03-15 09:28:00,63.3,61.9,30.21,SSW,194,8.0,13.0,95,0.00,,,-99.99,FreeWX 2.03,2013-03-15 14:28:00,
2013-03-15 09:33:00,63.5,61.7,30.21,SSW,198,8.0,13.4,94,0.00,,,-99.99,FreeWX 2.03,2013-03-15 14:33:00,
2013-03-15 09:38:00,63.7,61.9,30.21,SSW,199,8.0,13.0,94,0.00,,,-99.99,FreeWX 2.03,2013-03-15 14:38:00,
2013-03-15 09:43:00,63.9,62.1,30.21,SSW,195,8.0,13.4,94,0.00,,,-99.99,FreeWX 2.03,2013-03-15 14:43:00,
2013-03-15 09:48:00,64.2,62.1,30.21,South,191,8.0,12.1,93,0.00,,,-99.99,FreeWX 2.03,2013-03-15 14:48:00,
2013-03-15 09:53:00,64.4,62.1,30.21,South,189,8.0,13.9,92,0.00,,,-99.99,FreeWX 2.03,2013-03-15 14:53:00,
2013-03-15 09:58:00,64.6,62.2,30.21,South,187,9.0,16.3,92,0.00,,,-99.99,FreeWX 2.03,2013-03-15 14:58:00,
2013-03-15 10:03:00,64.8,62.1,30.21,South,188,9.0,15.2,91,0.00,,,-99.99,FreeWX 2.03,2013-03-15 15:03:00,
2013-03-15 10:08:00,64.9,62.2,30.21,South,191,9.0,14.3,91,0.00,,,-99.99,FreeWX 2.03,2013-03-15 15:08:00,
2013-03-15 10:13:00,65.1,62.1,30.21,South,189,9.0,14.3,90,0.00,,,-99.99,FreeWX 2.03,2013-03-15 15:13:00,
2013-03-15 10:18:00,65.3,61.9,30.21,South,187,9.0,16.3,89,0.00,,,-99.99,FreeWX 2.03,2013-03-15 15:18:00,
2013-03-15 10:23:00,65.3,61.9,30.21,South,188,9.0,16.3,89,0.00,,,-99.99,FreeWX 2.03,2013-03-15 15:23:00,
2013-03-15 10:28:00,65.5,61.9,30.21,South,188,9.0,15.9,88,0.00,,,-99.99,FreeWX 2.03,2013-03-15 15:28:00,
2013-03-15 10:33:00,65.7,61.7,30.21,South,189,9.0,18.1,87,0.00,,,-99.99,FreeWX 2.03,2013-03-15 15:33:00,
2013-03-15 10:38:00,65.8,61.5,30.21,SSW,192,11.0,17.2,86,0.00,,,-99.99,FreeWX 2.03,2013-03-15 15:38:00,
2013-03-15 10:44:00,66.0,61.3,30.21,SSW,195,11.0,18.1,85,0.00,,,-99.99,FreeWX 2.03,2013-03-15 15:44:00,
2013-03-15 10:49:00,66.4,61.3,30.21,SSW,193,11.0,18.1,84,0.00,,,-99.99,FreeWX 2.03,2013-03-15 15:49:00,
2013-03-15 10:54:00,66.9,61.5,30.21,South,190,10.0,17.2,83,0.00,,,-99.99,FreeWX 2.03,2013-03-15 15:54:00,
2013-03-15 10:59:00,67.5,61.7,30.21,SSW,192,11.0,17.2,82,0.00,,,-99.99,FreeWX 2.03,2013-03-15 15:59:00,
2013-03-15 11:04:00,68.0,61.5,30.21,SSW,195,11.0,15.4,80,0.00,,,-99.99,FreeWX 2.03,2013-03-15 16:04:00,
2013-03-15 11:09:00,68.5,61.7,30.21,SSW,193,10.0,14.3,79,0.00,,,-99.99,FreeWX 2.03,2013-03-15 16:09:00,
2013-03-15 11:14:00,68.9,61.7,30.21,South,190,9.0,19.5,78,0.00,,,-99.99,FreeWX 2.03,2013-03-15 16:14:00,
2013-03-15 11:19:00,69.4,61.9,30.21,South,185,9.0,14.3,77,0.00,,,-99.99,FreeWX 2.03,2013-03-15 16:19:00,
2013-03-15 11:24:00,69.6,61.0,30.21,South,184,10.0,20.6,74,0.00,,,-99.99,FreeWX 2.03,2013-03-15 16:24:00,
2013-03-15 11:29:00,69.6,60.6,30.21,South,183,10.0,16.3,73,0.00,,,-99.99,FreeWX 2.03,2013-03-15 16:29:00,
2013-03-15 11:34:00,69.8,60.8,30.21,South,183,9.0,14.8,73,0.00,,,-99.99,FreeWX 2.03,2013-03-15 16:34:00,
2013-03-15 11:39:00,69.8,59.9,30.21,South,185,10.0,17.2,71,0.00,,,-99.99,FreeWX 2.03,2013-03-15 16:39:00,
2013-03-15 11:44:00,70.0,59.7,30.21,South,185,10.0,16.3,70,0.00,,,-99.99,FreeWX 2.03,2013-03-15 16:44:00,
2013-03-15 11:49:00,69.8,59.5,30.21,South,186,11.0,19.5,70,0.00,,,-99.99,FreeWX 2.03,2013-03-15 16:49:00,
2013-03-15 11:54:00,69.8,59.5,30.21,South,185,10.0,16.3,70,0.00,,,-99.99,FreeWX 2.03,2013-03-15 16:54:00,
2013-03-15 11:59:00,69.8,59.5,30.21,South,185,9.0,18.6,70,0.00,,,-99.99,FreeWX 2.03,2013-03-15 16:59:00,
2013-03-15 12:04:00,69.8,59.5,30.21,South,185,10.0,17.2,70,0.00,,,-99.99,FreeWX 2.03,2013-03-15 17:04:00,
2013-03-15 12:09:00,69.8,59.2,30.21,South,187,11.0,19.0,69,0.00,,,-99.99,FreeWX 2.03,2013-03-15 17:09:00,
2013-03-15 12:14:00,69.8,59.5,30.21,South,185,10.0,14.3,70,0.00,,,-99.99,FreeWX 2.03,2013-03-15 17:14:00,
2013-03-15 12:19:00,70.0,59.7,30.21,South,179,8.0,16.8,70,0.00,,,-99.99,FreeWX 2.03,2013-03-15 17:19:00,
2013-03-15 12:24:00,70.0,59.4,30.21,South,178,9.0,17.2,69,0.00,,,-99.99,FreeWX 2.03,2013-03-15 17:24:00,
2013-03-15 12:29:00,70.2,59.5,30.18,South,178,9.0,14.3,69,0.00,,,-99.99,FreeWX 2.03,2013-03-15 17:29:00,
2013-03-15 12:34:00,70.2,59.9,30.18,South,173,8.0,12.5,70,0.00,,,-99.99,FreeWX 2.03,2013-03-15 17:34:00,
2013-03-15 12:39:00,70.3,59.7,30.18,South,172,8.0,16.3,69,0.00,,,-99.99,FreeWX 2.03,2013-03-15 17:39:00,
2013-03-15 12:44:00,70.3,59.7,30.18,South,173,9.0,15.9,69,0.00,,,-99.99,FreeWX 2.03,2013-03-15 17:44:00,
2013-03-15 12:49:00,70.3,59.2,30.18,South,170,9.0,19.5,68,0.00,,,-99.99,FreeWX 2.03,2013-03-15 17:49:00,
2013-03-15 12:54:00,70.3,59.2,30.18,South,170,9.0,18.6,68,0.00,,,-99.99,FreeWX 2.03,2013-03-15 17:54:00,
2013-03-15 12:59:00,70.5,59.9,30.18,South,169,9.0,14.3,69,0.00,,,-99.99,FreeWX 2.03,2013-03-15 17:59:00,
2013-03-15 13:04:00,70.7,59.5,30.18,SSE,164,8.0,16.3,68,0.00,,,-99.99,FreeWX 2.03,2013-03-15 18:04:00,
2013-03-15 13:09:00,70.9,59.4,30.18,SSE,165,9.0,17.2,67,0.00,,,-99.99,FreeWX 2.03,2013-03-15 18:09:00,
2013-03-15 13:14:00,70.7,59.2,30.18,SSE,168,9.0,15.2,67,0.00,,,-99.99,FreeWX 2.03,2013-03-15 18:14:00,
2013-03-15 13:19:00,70.7,59.2,30.18,SSE,166,9.0,16.3,67,0.00,,,-99.99,FreeWX 2.03,2013-03-15 18:19:00,
2013-03-15 13:24:00,70.9,59.4,30.18,SSE,165,9.0,13.9,67,0.00,,,-99.99,FreeWX 2.03,2013-03-15 18:24:00,
2013-03-15 13:34:00,70.7,58.8,30.18,SSE,162,10.0,17.2,66,0.00,,,-99.99,FreeWX 2.03,2013-03-15 18:34:00,
2013-03-15 13:39:00,70.7,58.8,30.15,SSE,160,9.0,13.4,66,0.00,,,-99.99,FreeWX 2.03,2013-03-15 18:39:00,
2013-03-15 13:44:00,70.7,58.8,30.15,SSE,159,9.0,14.8,66,0.00,,,-99.99,FreeWX 2.03,2013-03-15 18:44:00,
2013-03-15 13:49:00,70.7,58.8,30.15,SSE,159,9.0,16.3,66,0.00,,,-99.99,FreeWX 2.03,2013-03-15 18:49:00,
2013-03-15 13:54:00,70.9,59.0,30.15,SSE,158,9.0,13.9,66,0.00,,,-99.99,FreeWX 2.03,2013-03-15 18:54:00,
2013-03-15 13:59:00,71.1,59.2,30.15,SSE,160,9.0,16.3,66,0.00,,,-99.99,FreeWX 2.03,2013-03-15 18:59:00,
2013-03-15 14:04:00,71.1,58.6,30.15,SSE,160,10.0,13.9,65,0.00,,,-99.99,FreeWX 2.03,2013-03-15 19:04:00,
2013-03-15 14:09:00,71.2,58.8,30.15,SSE,156,9.0,14.3,65,0.00,,,-99.99,FreeWX 2.03,2013-03-15 19:09:00,
2013-03-15 14:14:00,71.2,58.5,30.15,SSE,154,9.0,15.2,64,0.00,,,-99.99,FreeWX 2.03,2013-03-15 19:14:00,
2013-03-15 14:19:00,71.2,58.5,30.15,SSE,154,9.0,16.3,64,0.00,,,-99.99,FreeWX 2.03,2013-03-15 19:19:00,
2013-03-15 14:24:00,71.2,58.5,30.15,SSE,152,9.0,18.1,64,0.00,,,-99.99,FreeWX 2.03,2013-03-15 19:24:00,
2013-03-15 14:29:00,71.1,58.3,30.15,SSE,152,10.0,15.2,64,0.00,,,-99.99,FreeWX 2.03,2013-03-15 19:29:00,
2013-03-15 14:34:00,70.9,58.1,30.15,SSE,152,10.0,15.9,64,0.00,,,-99.99,FreeWX 2.03,2013-03-15 19:34:00,
2013-03-15 14:39:00,70.9,58.1,30.12,SSE,150,9.0,15.4,64,0.00,,,-99.99,FreeWX 2.03,2013-03-15 19:39:00,
2013-03-15 14:44:00,70.7,57.9,30.12,SSE,151,9.0,15.4,64,0.00,,,-99.99,FreeWX 2.03,2013-03-15 19:44:00,
2013-03-15 14:49:00,70.7,58.3,30.12,SSE,151,9.0,13.9,65,0.00,,,-99.99,FreeWX 2.03,2013-03-15 19:49:00,
2013-03-15 14:54:00,70.7,58.3,30.12,SSE,149,9.0,15.2,65,0.00,,,-99.99,FreeWX 2.03,2013-03-15 19:54:00,
2013-03-15 14:59:00,70.9,58.5,30.12,SSE,147,9.0,15.9,65,0.00,,,-99.99,FreeWX 2.03,2013-03-15 19:59:00,
2013-03-15 15:04:00,70.9,58.1,30.12,SSE,147,9.0,16.3,64,0.00,,,-99.99,FreeWX 2.03,2013-03-15 20:04:00,
2013-03-15 15:09:00,70.7,57.9,30.12,SSE,147,10.0,15.9,64,0.00,,,-99.99,FreeWX 2.03,2013-03-15 20:09:00,
2013-03-15 15:14:00,70.7,57.9,30.12,SE,146,9.0,15.2,64,0.00,,,-99.99,FreeWX 2.03,2013-03-15 20:14:00,
2013-03-15 15:19:00,70.9,58.5,30.12,SE,145,8.0,15.2,65,0.00,,,-99.99,FreeWX 2.03,2013-03-15 20:19:00,
2013-03-15 15:24:00,70.9,58.5,30.12,SE,146,8.0,13.9,65,0.00,,,-99.99,FreeWX 2.03,2013-03-15 20:24:00,
2013-03-15 15:29:00,70.9,58.5,30.12,SE,146,8.0,14.3,65,0.00,,,-99.99,FreeWX 2.03,2013-03-15 20:29:00,
2013-03-15 15:34:00,70.7,57.9,30.12,SE,145,9.0,15.4,64,0.00,,,-99.99,FreeWX 2.03,2013-03-15 20:34:00,
2013-03-15 15:39:00,70.7,58.3,30.09,SE,144,10.0,17.7,65,0.00,,,-99.99,FreeWX 2.03,2013-03-15 20:39:00,
2013-03-15 15:44:00,70.3,57.9,30.09,SE,143,10.0,16.3,65,0.00,,,-99.99,FreeWX 2.03,2013-03-15 20:44:00,
2013-03-15 15:49:00,70.2,58.3,30.09,SE,143,10.0,14.3,66,0.00,,,-99.99,FreeWX 2.03,2013-03-15 20:49:00,
2013-03-15 15:54:00,70.2,58.3,30.09,SE,144,10.0,15.2,66,0.00,,,-99.99,FreeWX 2.03,2013-03-15 20:54:00,
2013-03-15 15:59:00,70.2,58.3,30.09,SE,142,10.0,14.3,66,0.00,,,-99.99,FreeWX 2.03,2013-03-15 20:59:00,
2013-03-15 16:04:00,70.0,58.1,30.09,SE,141,10.0,18.6,66,0.00,,,-99.99,FreeWX 2.03,2013-03-15 21:04:00,
2013-03-15 16:09:00,70.0,58.5,30.09,SE,142,10.0,15.4,67,0.00,,,-99.99,FreeWX 2.03,2013-03-15 21:09:00,
2013-03-15 16:14:00,69.8,58.3,30.09,SE,142,10.0,18.1,67,0.00,,,-99.99,FreeWX 2.03,2013-03-15 21:14:00,
2013-03-15 16:19:00,69.8,58.3,30.09,SE,142,11.0,15.9,67,0.00,,,-99.99,FreeWX 2.03,2013-03-15 21:19:00,
2013-03-15 16:25:00,69.6,58.1,30.06,SE,144,10.0,15.2,67,0.00,,,-99.99,FreeWX 2.03,2013-03-15 21:25:00,
2013-03-15 16:30:00,69.6,58.6,30.06,SE,144,10.0,15.2,68,0.00,,,-99.99,FreeWX 2.03,2013-03-15 21:30:00,
2013-03-15 16:35:00,69.8,58.8,30.06,SE,144,9.0,16.3,68,0.00,,,-99.99,FreeWX 2.03,2013-03-15 21:35:00,
2013-03-15 16:40:00,69.8,58.8,30.06,SE,143,9.0,17.7,68,0.00,,,-99.99,FreeWX 2.03,2013-03-15 21:40:00,
2013-03-15 16:45:00,69.8,58.8,30.06,SE,139,10.0,15.9,68,0.00,,,-99.99,FreeWX 2.03,2013-03-15 21:45:00,
2013-03-15 16:50:00,69.8,58.8,30.06,SE,139,10.0,16.8,68,0.00,,,-99.99,FreeWX 2.03,2013-03-15 21:50:00,
2013-03-15 16:55:00,69.8,58.8,30.06,SE,143,11.0,16.3,68,0.00,,,-99.99,FreeWX 2.03,2013-03-15 21:55:00,
2013-03-15 17:00:00,69.6,58.6,30.06,SE,143,11.0,15.9,68,0.00,,,-99.99,FreeWX 2.03,2013-03-15 22:00:00,
2013-03-15 17:05:00,69.4,58.5,30.06,SE,142,10.0,15.2,68,0.00,,,-99.99,FreeWX 2.03,2013-03-15 22:05:00,
2013-03-15 17:10:00,69.4,58.8,30.06,SE,143,11.0,17.2,69,0.00,,,-99.99,FreeWX 2.03,2013-03-15 22:10:00,
2013-03-15 17:15:00,69.4,58.8,30.06,SE,142,11.0,15.9,69,0.00,,,-99.99,FreeWX 2.03,2013-03-15 22:15:00,
2013-03-15 17:20:00,69.3,58.6,30.06,SE,141,11.0,15.4,69,0.00,,,-99.99,FreeWX 2.03,2013-03-15 22:20:00,
2013-03-15 17:25:00,69.3,58.6,30.06,SE,142,10.0,17.2,69,0.00,,,-99.99,FreeWX 2.03,2013-03-15 22:25:00,
2013-03-15 17:30:00,69.1,58.5,30.06,SE,143,10.0,17.7,69,0.00,,,-99.99,FreeWX 2.03,2013-03-15 22:30:00,
2013-03-15 17:35:00,69.1,58.5,30.06,SE,144,10.0,15.2,69,0.00,,,-99.99,FreeWX 2.03,2013-03-15 22:35:00,
2013-03-15 17:40:00,68.9,58.3,30.06,SE,146,10.0,17.2,69,0.00,,,-99.99,FreeWX 2.03,2013-03-15 22:40:00,
2013-03-15 17:45:00,68.7,58.5,30.06,SSE,148,10.0,16.3,70,0.00,,,-99.99,FreeWX 2.03,2013-03-15 22:45:00,
2013-03-15 17:50:00,68.7,58.5,30.06,SE,146,10.0,17.2,70,0.00,,,-99.99,FreeWX 2.03,2013-03-15 22:50:00,
2013-03-15 17:55:00,68.5,58.3,30.06,SE,146,10.0,16.8,70,0.00,,,-99.99,FreeWX 2.03,2013-03-15 22:55:00,
2013-03-15 18:00:00,68.2,58.5,30.06,SSE,149,10.0,18.6,71,0.00,,,-99.99,FreeWX 2.03,2013-03-15 23:00:00,
2013-03-15 18:05:00,68.2,58.8,30.06,SE,146,10.0,15.4,72,0.00,,,-99.99,FreeWX 2.03,2013-03-15 23:05:00,
2013-03-15 18:10:00,68.2,58.8,30.06,SE,144,10.0,17.2,72,0.00,,,-99.99,FreeWX 2.03,2013-03-15 23:10:00,
2013-03-15 18:15:00,68.0,59.0,30.06,SE,145,12.0,21.0,73,0.00,,,-99.99,FreeWX 2.03,2013-03-15 23:15:00,
2013-03-15 18:20:00,67.8,58.8,30.06,SSE,147,11.0,19.5,73,0.00,,,-99.99,FreeWX 2.03,2013-03-15 23:20:00,
2013-03-15 18:25:00,67.6,59.0,30.03,SSE,150,11.0,16.8,74,0.00,,,-99.99,FreeWX 2.03,2013-03-15 23:25:00,
2013-03-15 18:30:00,67.6,59.0,30.03,SSE,151,11.0,15.9,74,0.00,,,-99.99,FreeWX 2.03,2013-03-15 23:30:00,
2013-03-15 18:35:00,67.5,59.2,30.03,SSE,152,10.0,15.4,75,0.00,,,-99.99,FreeWX 2.03,2013-03-15 23:35:00,
2013-03-15 18:40:00,67.5,59.2,30.03,SSE,151,11.0,17.2,75,0.00,,,-99.99,FreeWX 2.03,2013-03-15 23:40:00,
2013-03-15 18:45:00,67.3,59.0,30.03,SSE,150,11.0,18.6,75,0.00,,,-99.99,FreeWX 2.03,2013-03-15 23:45:00,
2013-03-15 18:50:00,67.1,59.4,30.03,SSE,152,11.0,17.2,76,0.00,,,-99.99,FreeWX 2.03,2013-03-15 23:50:00,
2013-03-15 18:55:00,66.9,59.2,30.03,SSE,154,11.0,17.2,76,0.00,,,-99.99,FreeWX 2.03,2013-03-15 23:55:00,
2013-03-15 19:00:00,66.9,59.2,30.03,SSE,154,10.0,15.4,76,0.00,,,-99.99,FreeWX 2.03,2013-03-16 00:00:00,
2013-03-15 19:05:00,66.7,59.4,30.03,SSE,153,10.0,16.3,77,0.00,,,-99.99,FreeWX 2.03,2013-03-16 00:05:00,
2013-03-15 19:10:00,66.6,59.2,30.03,SSE,153,10.0,15.4,77,0.00,,,-99.99,FreeWX 2.03,2013-03-16 00:10:00,
2013-03-15 19:15:00,66.4,59.4,30.03,SSE,156,11.0,16.8,78,0.00,,,-99.99,FreeWX 2.03,2013-03-16 00:15:00,
2013-03-15 19:20:00,66.2,59.2,30.03,SSE,157,10.0,18.6,78,0.00,,,-99.99,FreeWX 2.03,2013-03-16 00:20:00,
2013-03-15 19:25:00,65.8,59.2,30.03,SSE,157,10.0,15.9,79,0.00,,,-99.99,FreeWX 2.03,2013-03-16 00:25:00,
2013-03-15 19:30:00,65.7,59.4,30.03,SSE,157,10.0,15.4,80,0.00,,,-99.99,FreeWX 2.03,2013-03-16 00:30:00,
2013-03-15 19:35:00,65.5,59.2,30.03,SSE,158,10.0,18.1,80,0.00,,,-99.99,FreeWX 2.03,2013-03-16 00:35:00,
2013-03-15 19:40:00,65.3,59.4,30.03,SSE,159,10.0,19.5,81,0.00,,,-99.99,FreeWX 2.03,2013-03-16 00:40:00,
2013-03-15 19:45:00,65.1,59.5,30.03,SSE,160,12.0,16.8,82,0.00,,,-99.99,FreeWX 2.03,2013-03-16 00:45:00,
2013-03-15 19:50:00,64.9,59.7,30.03,SSE,162,11.0,18.1,83,0.00,,,-99.99,FreeWX 2.03,2013-03-16 00:50:00,
2013-03-15 19:55:00,64.9,59.7,30.03,SSE,162,11.0,19.5,83,0.00,,,-99.99,FreeWX 2.03,2013-03-16 00:55:00,
2013-03-15 20:00:00,64.8,59.7,30.03,SSE,164,11.0,15.9,84,0.00,,,-99.99,FreeWX 2.03,2013-03-16 01:00:00,
2013-03-15 20:05:00,64.8,60.1,30.03,SSE,165,11.0,17.7,85,0.00,,,-99.99,FreeWX 2.03,2013-03-16 01:05:00,
2013-03-15 20:10:00,64.6,59.9,30.03,SSE,165,11.0,16.3,85,0.00,,,-99.99,FreeWX 2.03,2013-03-16 01:10:00,
2013-03-15 20:15:00,64.6,60.3,30.03,SSE,166,11.0,18.1,86,0.00,,,-99.99,FreeWX 2.03,2013-03-16 01:15:00,
2013-03-15 20:20:00,64.6,60.6,30.03,SSE,165,10.0,16.3,87,0.00,,,-99.99,FreeWX 2.03,2013-03-16 01:20:00,
2013-03-15 20:25:00,64.6,60.6,30.03,SSE,167,10.0,18.6,87,0.00,,,-99.99,FreeWX 2.03,2013-03-16 01:25:00,
2013-03-15 20:30:00,64.4,60.8,30.03,South,171,11.0,17.7,88,0.00,,,-99.99,FreeWX 2.03,2013-03-16 01:30:00,
2013-03-15 20:35:00,64.4,60.8,30.03,South,172,11.0,19.9,88,0.00,,,-99.99,FreeWX 2.03,2013-03-16 01:35:00,
2013-03-15 20:40:00,64.4,61.2,30.03,South,172,11.0,17.7,89,0.00,,,-99.99,FreeWX 2.03,2013-03-16 01:40:00,
2013-03-15 20:45:00,64.4,61.2,30.03,South,174,12.0,18.1,89,0.00,,,-99.99,FreeWX 2.03,2013-03-16 01:45:00,
2013-03-15 20:50:00,64.2,61.2,30.03,South,176,12.0,18.6,90,0.00,,,-99.99,FreeWX 2.03,2013-03-16 01:50:00,
2013-03-15 20:55:00,64.2,61.2,30.03,South,176,12.0,17.7,90,0.00,,,-99.99,FreeWX 2.03,2013-03-16 01:55:00,
2013-03-15 21:00:00,64.2,61.5,30.03,South,175,12.0,17.7,91,0.00,,,-99.99,FreeWX 2.03,2013-03-16 02:00:00,
2013-03-15 21:05:00,64.2,61.5,30.03,South,174,11.0,15.9,91,0.00,,,-99.99,FreeWX 2.03,2013-03-16 02:05:00,
2013-03-15 21:10:00,64.0,61.7,30.03,South,174,11.0,16.8,92,0.00,,,-99.99,FreeWX 2.03,2013-03-16 02:10:00,
2013-03-15 21:15:00,64.0,61.7,30.03,South,175,10.0,15.2,92,0.00,,,-99.99,FreeWX 2.03,2013-03-16 02:15:00,
2013-03-15 21:20:00,64.0,61.7,30.03,South,175,9.0,14.8,92,0.00,,,-99.99,FreeWX 2.03,2013-03-16 02:20:00,
2013-03-15 21:25:00,64.0,61.7,30.06,South,175,9.0,13.9,92,0.00,,,-99.99,FreeWX 2.03,2013-03-16 02:25:00,
2013-03-15 21:30:00,64.0,61.7,30.06,South,175,10.0,14.8,92,0.00,,,-99.99,FreeWX 2.03,2013-03-16 02:30:00,
2013-03-15 21:35:00,63.9,61.9,30.06,South,177,10.0,13.4,93,0.00,,,-99.99,FreeWX 2.03,2013-03-16 02:35:00,
2013-03-15 21:40:00,63.9,61.9,30.03,South,178,9.0,14.3,93,0.00,,,-99.99,FreeWX 2.03,2013-03-16 02:40:00,
2013-03-15 21:45:00,63.9,61.9,30.03,South,178,9.0,14.8,93,0.00,,,-99.99,FreeWX 2.03,2013-03-16 02:45:00,
2013-03-15 21:50:00,63.9,61.9,30.03,South,178,9.0,14.3,93,0.00,,,-99.99,FreeWX 2.03,2013-03-16 02:50:00,
2013-03-15 21:55:00,63.9,61.9,30.03,South,179,9.0,14.8,93,0.00,,,-99.99,FreeWX 2.03,2013-03-16 02:55:00,
2013-03-15 22:00:00,63.9,61.9,30.03,South,180,9.0,15.9,93,0.00,,,-99.99,FreeWX 2.03,2013-03-16 03:00:00,
2013-03-15 22:05:00,63.9,62.1,30.03,South,178,8.0,13.4,94,0.00,,,-99.99,FreeWX 2.03,2013-03-16 03:05:00,
2013-03-15 22:11:00,63.7,61.9,30.06,South,177,8.0,13.0,94,0.00,,,-99.99,FreeWX 2.03,2013-03-16 03:11:00,
2013-03-15 22:16:00,63.7,61.9,30.06,South,178,8.0,13.4,94,0.00,,,-99.99,FreeWX 2.03,2013-03-16 03:16:00,
2013-03-15 22:21:00,63.7,61.9,30.06,South,178,8.0,11.6,94,0.00,,,-99.99,FreeWX 2.03,2013-03-16 03:21:00,
2013-03-15 22:26:00,63.7,61.9,30.06,South,179,7.0,13.0,94,0.00,,,-99.99,FreeWX 2.03,2013-03-16 03:26:00,
2013-03-15 22:31:00,63.7,61.9,30.06,South,178,8.0,13.0,94,0.00,,,-99.99,FreeWX 2.03,2013-03-16 03:31:00,
2013-03-15 22:36:00,63.7,62.2,30.06,South,178,8.0,12.1,95,0.00,,,-99.99,FreeWX 2.03,2013-03-16 03:36:00,
2013-03-15 22:41:00,63.5,62.1,30.06,South,177,8.0,12.1,95,0.00,,,-99.99,FreeWX 2.03,2013-03-16 03:41:00,
2013-03-15 22:46:00,63.5,62.1,30.06,South,176,8.0,13.9,95,0.00,,,-99.99,FreeWX 2.03,2013-03-16 03:46:00,
2013-03-15 22:51:00,63.5,62.1,30.06,South,178,8.0,12.1,95,0.00,,,-99.99,FreeWX 2.03,2013-03-16 03:51:00,
2013-03-15 22:56:00,63.5,62.1,30.06,South,180,8.0,13.0,95,0.00,,,-99.99,FreeWX 2.03,2013-03-16 03:56:00,
2013-03-15 23:01:00,63.5,62.1,30.06,South,180,8.0,11.0,95,0.00,,,-99.99,FreeWX 2.03,2013-03-16 04:01:00,
2013-03-15 23:11:00,63.5,62.4,30.06,South,179,7.0,12.1,96,0.00,,,-99.99,FreeWX 2.03,2013-03-16 04:11:00,
2013-03-15 23:16:00,63.5,62.4,30.06,South,179,7.0,12.1,96,0.00,,,-99.99,FreeWX 2.03,2013-03-16 04:16:00,
2013-03-15 23:21:00,63.5,62.4,30.06,South,181,7.0,11.6,96,0.00,,,-99.99,FreeWX 2.03,2013-03-16 04:21:00,
2013-03-15 23:26:00,63.3,62.2,30.06,South,180,7.0,10.5,96,0.00,,,-99.99,FreeWX 2.03,2013-03-16 04:26:00,
2013-03-15 23:31:00,63.3,62.2,30.06,South,177,6.0,10.5,96,0.00,,,-99.99,FreeWX 2.03,2013-03-16 04:31:00,
2013-03-15 23:36:00,63.3,62.2,30.06,South,177,7.0,10.5,96,0.00,,,-99.99,FreeWX 2.03,2013-03-16 04:36:00,
2013-03-15 23:41:00,63.3,62.2,30.03,South,178,7.0,11.0,96,0.00,,,-99.99,FreeWX 2.03,2013-03-16 04:41:00,
2013-03-15 23:46:00,63.3,62.2,30.03,South,179,7.0,11.0,96,0.00,,,-99.99,FreeWX 2.03,2013-03-16 04:46:00,
2013-03-15 23:51:00,63.3,62.4,30.03,South,179,7.0,11.0,97,0.00,,,-99.99,FreeWX 2.03,2013-03-16 04:51:00,
2013-03-15 23:56:00,63.1,62.2,30.03,South,179,7.0,10.5,97,0.00,,,-99.99,FreeWX 2.03,2013-03-16 04:56:00,